Location: Cutler
(25.6150°N, 80.3110°W)
Time: 10:51:30
(UTC-04:00)

Cosmos 2360 Rocket - Visible Passes

Search period start: 27 April 2017 00:00
Search period end: 07 May 2017 00:00
Orbit: 832 x 847 km, 71.0° (Epoch: 25 April)

Date Brightness Start Highest point End Pass type
(mag) Time Alt. Az. Time Alt. Az. Time Alt. Az.
27 Apr 2.3 21:24:09 10° SSW 21:29:46 75° WNW 21:35:25 10° NNE visible
28 Apr 2.3 21:08:28 10° SSW 21:14:06 81° WNW 21:19:46 10° NNE visible
29 Apr 5.8 06:14:05 10° NE 06:15:51 11° ENE 06:17:37 10° ENE visible
29 Apr 2.2 20:52:47 10° SSW 20:58:25 87° WNW 21:04:06 10° NNE visible
30 Apr 5.8 05:59:13 10° NE 06:00:08 10° ENE 06:01:03 10° ENE visible
30 Apr 2.2 20:37:08 10° SSW 20:42:45 87° ESE 20:48:26 10° NNE visible
01 May 2.2 20:21:28 10° SSW 20:27:05 81° ESE 20:32:45 10° NNE visible
02 May 5.6 21:55:01 10° WNW 21:55:52 10° WNW 21:56:44 10° NW visible
03 May 5.6 21:38:26 10° WNW 21:40:09 11° WNW 21:41:53 10° NW visible
04 May 5.6 21:22:11 10° W 21:24:27 12° WNW 21:26:43 10° NW visible
05 May 5.6 21:06:02 10° W 21:08:43 13° WNW 21:11:26 10° NNW visible
06 May 2.6 06:04:56 10° NNW 06:10:35 70° ENE 06:16:11 10° SSE visible
06 May 5.5 20:49:58 10° W 20:53:01 15° WNW 20:56:04 10° NNW visible
